7 * 24
多渠道服务支持
STARLINK-36979(NORAD编号67996)是美国SpaceX公司星链(Starlink)低轨卫星互联网星座的成员卫星,属于该星座大规模组网部署中的一员。星链星座旨在通过近地轨道部署大量小型卫星,为全球提供高速低延迟宽带互联网服务,尤其覆盖地面基础设施难以抵达的偏远区域。作为新一代星链卫星,它搭载相控阵天线与氩气离子推进系统,可实现高效姿态控制与轨道机动,服务周期结束后会主动脱轨销毁。目前该卫星处于低地轨道运行,支撑星链全球网络服务能力的持续扩展。
美国
(US)
| 数据来源 | 国际轨道数据 |
| 星历时间: | 2026-07-27T18:01:25+0800 16小时前 查看轨道信息 |
| 半长轴: | 6861.096km |
| 偏心率: | 0.0002374 |
| 轨道倾角: | 43.004° |
| 近地点辐角 | 280.513° |
| 升交点赤经 | 339.761° |
| 平近点角 | 79.545° |
| 近地点: | 481.33km |
| 远地点: | 484.588km |
| 周期: | 94.265分钟 |
| 每日圈数: | 15.276103 |